Weather History for MMIO - May, 2013

Change the Weather History Date:

Monday, May 13, 2013

  Actual Average Record
Temperature  
Mean Temperature 51 °F -  
Max Temperature 57 °F 82 °F 95 °F (1998)
Min Temperature 45 °F 63 °F 45 °F (2012)
Degree Days  
Heating Degree Days 14    
Growing Degree Days 1 (Base 50)    
Moisture  
Dew Point 52 °F    
Average Humidity 91    
Maximum Humidity 100    
Minimum Humidity 77    
Precipitation  
Precipitation 0.47 in - - ()
Sea Level Pressure  
Sea Level Pressure 30.28 in    
Wind  
Wind Speed 7 mph ()    
Max Wind Speed 17 mph    
Max Gust Speed -    
Visibility 2.5 miles    
Events Fog , Rain , Thunderstorm    
Averages and records for this station are not official NWS values.
T = Trace of Precipitation, MM = Missing Value Source: Averaged Metar Reports

Daily Weather History Graph

Daily Weather History Graph

Search for Another Location

Airport or City:

Trip Planner

Search our weather history database for the weather conditions in past years. The results will help you decide how hot, cold, wet, or windy it might be!

Date:

Astronomy

May. 13, 2013 Rise Set
Actual Time 6:59 AM CDT 8:21 PM CDT
Civil Twilight 6:34 AM CDT 8:45 PM CDT
Nautical Twilight 6:05 AM CDT 9:15 PM CDT
Astronomical Twilight 5:34 AM CDT 9:46 PM CDT
Moon 9:49 AM CDT (5/13) 11:31 PM CDT (5/13)
Length of Visible Light 14h 11m
Length of Day
13h 21m
Waxing Crescent, 12% of the Moon is Illuminated
May 13
Waxing Crescent
May 17
First Quarter
May 24
Full
May 31
Last Quarter
Jun 8
New

Hourly Weather History & Observations

Time (CDT) Temp. Dew Point Humidity Pressure Visibility Wind Dir Wind Speed Gust Speed Precip Events Conditions
12:48 AM 47 °F 47 °F 99% 30.20 in 0 mi North 11.2 mph - - Fog Heavy Fog
3:48 AM 47 °F 47 °F 100% 30.20 in 0 mi NNW 11.2 mph - - Fog Heavy Fog
6:10 AM 51.8 °F 48.2 °F 88% 30.28 in 5.5 mi North 6.9 mph - N/A Rain Rain
6:40 AM 51.8 °F 48.2 °F 88% 30.28 in 0.8 mi North 6.9 mph - N/A   Overcast
6:50 AM 48 °F 48 °F 100% 30.21 in 0 mi West 4.5 mph - - Fog Heavy Fog
7:25 AM 53.6 °F 48.2 °F 82% 30.28 in 5.5 mi Calm Calm - N/A   Mostly Cloudy
7:40 AM 55.4 °F 48.2 °F 77% 30.28 in 2.0 mi Calm Calm - N/A   Mostly Cloudy
8:40 AM 55.4 °F 48.2 °F 77% 30.31 in 5.5 mi North 6.9 mph - N/A   Mostly Cloudy
9:30 AM 55.4 °F 51.8 °F 88% 30.33 in 0.5 mi North 6.9 mph - N/A Fog Fog
9:40 AM 55.4 °F 51.8 °F 88% 30.33 in 0.4 mi North 6.9 mph - N/A Fog Fog
9:48 AM 51 °F 51 °F 100% 30.25 in 2 mi North 13.4 mph - - Fog Light Fog
10:00 AM 51 °F - %  in 2 mi North 13.4 mph - -   Overcast
10:40 AM 55.4 °F 51.8 °F 88% 30.32 in 0.5 mi Calm Calm - N/A Fog Fog
11:40 AM 55.4 °F 51.8 °F 88% 30.35 in 0.5 mi North 6.9 mph - N/A Fog Fog
12:40 PM 55.4 °F 51.8 °F 88% 30.33 in 0.5 mi NE 9.2 mph - N/A Fog Fog
12:48 PM 52 °F 52 °F 100% 30.25 in 2 mi SE 11.2 mph - - Fog Light Fog
1:40 PM 55.4 °F 51.8 °F 88% 30.33 in 0.4 mi North 9.2 mph - N/A Fog Fog
2:40 PM 59.0 °F 57.2 °F 94% 30.32 in 0.8 mi North 5.8 mph - N/A   Overcast
3:40 PM 59.0 °F 57.2 °F 94% 30.30 in 1.0 mi South 5.8 mph - N/A   Overcast
3:50 PM 52 °F 52 °F 100% 30.19 in 2 mi NW 4.5 mph - - Rain Heavy Drizzle
4:40 PM 59.0 °F 57.2 °F 94% 30.28 in 1.0 mi South 9.2 mph - N/A Rain Light Rain
5:40 PM 59.0 °F 57.2 °F 94% 30.25 in 2.0 mi East 17.3 mph - N/A Rain Light Rain
6:50 PM 53 °F 53 °F 99% 30.15 in 3 mi NW 6.7 mph - - Thunderstorm Light Thunderstorm
7:40 PM 55.4 °F 53.6 °F 94% 30.30 in 0.8 mi Calm Calm - N/A Rain Rain
8:27 PM 55.4 °F 53.6 °F 94% 30.30 in 6.0 mi East 11.5 mph - N/A Rain Light Rain
8:40 PM 55.4 °F 53.6 °F 94% 30.30 in 6.0 mi East 17.3 mph - N/A   Overcast
9:40 PM 55.4 °F 51.8 °F 88% 30.30 in 8.0 mi East 9.2 mph - N/A   Overcast
9:50 PM 51 °F 51 °F 100% 30.19 in 1 mi SSW 4.5 mph - -   Mist
10:40 PM 57.2 °F 50.0 °F 77% 30.30 in 8.0 mi East 13.8 mph - N/A   Overcast
11:40 PM 57.2 °F 50.0 °F 77% 30.32 in 8.0 mi Calm Calm - N/A   Overcast